| time (UTC) | temp F | wind direction | speed knots | gust knots | rain 1hr in | rain 24hr in | rain mn in | humidity % | barometer mb |
| 20260507195428 | 74 | 14 | 0.0 | 1.7 | 0.00 | 0.00 | 0.00 | 45 | 1015.0 |
| 20260507194927 | 74 | 134 | 0.9 | 2.6 | 0.00 | 0.00 | 0.00 | 48 | 1015.2 |
| 20260507194427 | 74 | 69 | 0.9 | 2.6 | 0.00 | 0.00 | 0.00 | 46 | 1015.3 |
| 20260507193925 | 74 | 185 | 0.9 | 3.5 | 0.00 | 0.00 | 0.00 | 48 | 1015.4 |
| 20260507193427 | 74 | 162 | 0.9 | 4.3 | 0.00 | 0.00 | 0.00 | 50 | 1015.4 |
| 20260507192902 | 74 | 160 | 0.9 | 4.3 | 0.00 | 0.00 | 0.00 | 50 | 1015.5 |
| 20260507192334 | 73 | 350 | 0.9 | 4.3 | 0.00 | 0.00 | 0.00 | 48 | 1015.5 |
| 20260507191811 | 73 | 25 | 0.9 | 4.3 | 0.00 | 0.00 | 0.00 | 49 | 1015.7 |
| 20260507191243 | 74 | 131 | 0.9 | 2.6 | 0.00 | 0.00 | 0.00 | 49 | 1015.6 |
| 20260507190739 | 73 | 93 | 1.7 | 6.1 | 0.00 | 0.00 | 0.00 | 49 | 1015.6 |
| 20260507190239 | 72 | 112 | 1.7 | 7.8 | 0.00 | 0.00 | 0.00 | 51 | 1015.7 |
| 20260507185734 | 71 | 27 | 1.7 | 7.8 | 0.00 | 0.00 | 0.00 | 51 | 1015.7 |
| 20260507185232 | 71 | 323 | 1.7 | 7.8 | 0.00 | 0.00 | 0.00 | 46 | 1015.7 |
| 20260507184703 | 71 | 358 | 0.9 | 6.1 | 0.00 | 0.00 | 0.00 | 52 | 1015.7 |
| 20260507184201 | 71 | 11 | 1.7 | 7.0 | 0.00 | 0.00 | 0.00 | 51 | 1015.8 |
| 20260507183635 | 70 | 128 | 1.7 | 8.7 | 0.00 | 0.00 | 0.00 | 51 | 1015.9 |
| 20260507183338 | 70 | 330 | 2.6 | 8.7 | 0.00 | 0.00 | 0.00 | 49 | 1016.0 |
| 20260507182605 | 70 | 46 | 3.5 | 8.7 | 0.00 | 0.00 | 0.00 | 52 | 1016.1 |
| 20260507182037 | 69 | 76 | 3.5 | 8.7 | 0.00 | 0.00 | 0.00 | 51 | 1016.2 |
| 20260507181531 | 69 | 317 | 2.6 | 7.8 | 0.00 | 0.00 | 0.00 | 50 | 1016.2 |
| 20260507181030 | 69 | 72 | 2.6 | 7.8 | 0.00 | 0.00 | 0.00 | 50 | 1016.4 |
| 20260507180505 | 69 | 60 | 2.6 | 7.8 | 0.00 | 0.00 | 0.00 | 47 | 1016.4 |
| 20260507180224 | 70 | 37 | 1.7 | 7.8 | 0.00 | 0.00 | 0.00 | 49 | 1016.6 |
| 20260507175708 | 70 | 91 | 0.9 | 7.0 | 0.00 | 0.00 | 0.00 | 52 | 1016.6 |
| 20260507174950 | 69 | 34 | 1.7 | 7.0 | 0.00 | 0.00 | 0.00 | 51 | 1016.6 |
| 20260507174442 | 68 | 47 | 2.6 | 7.0 | 0.00 | 0.00 | 0.00 | 51 | 1016.8 |
| 20260507173939 | 68 | 297 | 1.7 | 7.0 | 0.00 | 0.00 | 0.00 | 49 | 1016.8 |
| 20260507173436 | 68 | 63 | 1.7 | 7.0 | 0.00 | 0.00 | 0.00 | 54 | 1016.9 |
| 20260507172933 | 68 | 79 | 1.7 | 7.0 | 0.00 | 0.00 | 0.00 | 52 | 1017.0 |
| 20260507172407 | 69 | 358 | 1.7 | 5.2 | 0.00 | 0.00 | 0.00 | 53 | 1017.1 |
| 20260507171840 | 68 | 342 | 0.9 | 5.2 | 0.00 | 0.00 | 0.00 | 54 | 1017.3 |
| 20260507171555 | 68 | 11 | 0.9 | 5.2 | 0.00 | 0.00 | 0.00 | 51 | 1017.5 |
| 20260507170835 | 68 | 266 | 0.9 | 4.3 | 0.00 | 0.00 | 0.00 | 55 | 1017.6 |
| 20260507170311 | 68 | 343 | 0.9 | 5.2 | 0.00 | 0.00 | 0.00 | 56 | 1017.8 |
| 20260507165805 | 67 | 134 | 1.7 | 5.2 | 0.00 | 0.00 | 0.00 | 57 | 1017.8 |
| 20260507165306 | 67 | 70 | 1.7 | 6.1 | 0.00 | 0.00 | 0.00 | 54 | 1017.9 |
| 20260507164956 | 67 | 5 | 1.7 | 6.1 | 0.00 | 0.00 | 0.00 | 55 | 1018.0 |
| 20260507164234 | 67 | 74 | 0.9 | 3.5 | 0.00 | 0.00 | 0.00 | 56 | 1018.0 |
| 20260507163705 | 67 | 292 | 0.9 | 5.2 | 0.00 | 0.00 | 0.00 | 56 | 1018.2 |
| 20260507163204 | 66 | 51 | 1.7 | 5.2 | 0.00 | 0.00 | 0.00 | 55 | 1018.2 |
| 20260507162859 | 66 | 204 | 0.9 | 6.1 | 0.00 | 0.00 | 0.00 | 58 | 1018.2 |
| 20260507162132 | 66 | 340 | 1.7 | 6.1 | 0.00 | 0.00 | 0.00 | 60 | 1018.3 |
| 20260507161605 | 65 | 309 | 2.6 | 6.1 | 0.00 | 0.00 | 0.00 | 58 | 1018.2 |
| 20260507161302 | 65 | 77 | 2.6 | 6.1 | 0.00 | 0.00 | 0.00 | 58 | 1018.2 |
| 20260507160511 | 65 | 56 | 1.7 | 5.2 | 0.00 | 0.00 | 0.00 | 59 | 1018.2 |
| 20260507160011 | 65 | 333 | 0.9 | 5.2 | 0.00 | 0.00 | 0.00 | 57 | 1018.2 |
| 20260507155930 | 65 | 321 | 0.9 | 3.5 | 0.00 | 0.00 | 0.00 | 58 | 1018.2 |
| 20260507154937 | 65 | 60 | 0.9 | 3.5 | 0.00 | 0.00 | 0.00 | 60 | 1018.2 |
| 20260507154435 | 65 | 48 | 0.9 | 5.2 | 0.00 | 0.00 | 0.00 | 63 | 1018.3 |
| 20260507153935 | 64 | 4 | 0.9 | 5.2 | 0.00 | 0.00 | 0.00 | 58 | 1018.4 |
| 20260507153406 | 64 | 37 | 0.9 | 4.3 | 0.00 | 0.00 | 0.00 | 60 | 1018.5 |
| 20260507152905 | 64 | 345 | 0.9 | 5.2 | 0.00 | 0.00 | 0.00 | 63 | 1018.5 |
| 20260507152407 | 64 | 49 | 0.9 | 5.2 | 0.00 | 0.00 | 0.00 | 61 | 1018.7 |
| 20260507151829 | 63 | 9 | 0.9 | 4.3 | 0.00 | 0.00 | 0.00 | 63 | 1018.6 |
| 20260507151327 | 63 | 289 | 0.9 | 4.3 | 0.00 | 0.00 | 0.00 | 63 | 1018.6 |
| 20260507150800 | 63 | 39 | 1.7 | 4.3 | 0.00 | 0.00 | 0.00 | 64 | 1018.8 |
| 20260507150259 | 62 | 48 | 1.7 | 4.3 | 0.00 | 0.00 | 0.00 | 65 | 1018.7 |
| 20260507145732 | 62 | 320 | 1.7 | 6.1 | 0.00 | 0.00 | 0.00 | 64 | 1018.7 |
| 20260507145235 | 62 | 26 | 1.7 | 6.1 | 0.00 | 0.00 | 0.00 | 66 | 1018.8 |
| 20260507144728 | 62 | 319 | 1.7 | 5.2 | 0.00 | 0.00 | 0.00 | 67 | 1018.8 |
| 20260507144225 | 62 | 351 | 0.9 | 4.3 | 0.00 | 0.00 | 0.00 | 65 | 1018.8 |
| 20260507143700 | 62 | 325 | 0.9 | 5.2 | 0.00 | 0.00 | 0.00 | 68 | 1018.9 |
| 20260507143159 | 61 | 314 | 0.9 | 5.2 | 0.00 | 0.00 | 0.00 | 68 | 1018.9 |
| 20260507142700 | 61 | 326 | 0.9 | 3.5 | 0.00 | 0.00 | 0.00 | 69 | 1018.9 |
| 20260507142135 | 61 | 52 | 0.0 | 2.6 | 0.00 | 0.00 | 0.00 | 70 | 1018.9 |
| 20260507141631 | 60 | 325 | 0.9 | 2.6 | 0.00 | 0.00 | 0.00 | 72 | 1018.9 |
| 20260507141120 | 60 | 321 | 0.9 | 3.5 | 0.00 | 0.00 | 0.00 | 71 | 1019.0 |
| 20260507140621 | 60 | 326 | 0.9 | 3.5 | 0.00 | 0.00 | 0.00 | 71 | 1019.2 |
| 20260507140116 | 60 | 53 | 0.0 | 1.7 | 0.00 | 0.00 | 0.00 | 74 | 1019.2 |
| 20260507135616 | 60 | 259 | 0.0 | 0.9 | 0.00 | 0.00 | 0.00 | 76 | 1019.3 |
| 20260507135053 | 59 | 343 | 0.0 | 0.9 | 0.00 | 0.00 | 0.00 | 77 | 1019.3 |
| 20260507134549 | 59 | 329 | 0.0 | 0.0 | 0.00 | 0.00 | 0.00 | 81 | 1019.3 |
| 20260507134046 | 58 | 329 | 0.0 | 1.7 | 0.00 | 0.00 | 0.00 | 81 | 1019.3 |
| 20260507133545 | 57 | 343 | 0.0 | 1.7 | 0.00 | 0.00 | 0.00 | 81 | 1019.4 |
| 20260507133044 | 57 | 343 | 0.0 | 1.7 | 0.00 | 0.00 | 0.00 | 80 | 1019.3 |
| 20260507132520 | 57 | 343 | 0.0 | 2.6 | 0.00 | 0.00 | 0.00 | 81 | 1019.3 |
| 20260507131956 | 56 | 343 | 0.0 | 2.6 | 0.00 | 0.00 | 0.00 | 81 | 1019.3 |
| 20260507131437 | 56 | 351 | 0.0 | 2.6 | 0.00 | 0.00 | 0.00 | 82 | 1019.3 |
| 20260507130924 | 56 | 346 | 0.0 | 0.0 | 0.00 | 0.00 | 0.00 | 84 | 1019.2 |
| 20260507130423 | 56 | 346 | 0.0 | 0.0 | 0.00 | 0.00 | 0.00 | 86 | 1019.2 |
| 20260507125921 | 55 | 346 | 0.0 | 0.0 | 0.00 | 0.00 | 0.00 | 87 | 1019.2 |
| 20260507125422 | 55 | 346 | 0.0 | 0.0 | 0.00 | 0.00 | 0.00 | 86 | 1019.1 |
| 20260507124856 | 55 | 271 | 0.0 | 0.0 | 0.00 | 0.00 | 0.00 | 88 | 1019.0 |
| 20260507124345 | 54 | 271 | 0.0 | 0.0 | 0.00 | 0.00 | 0.00 | 88 | 1018.9 |
| 20260507123846 | 53 | 271 | 0.0 | 0.0 | 0.00 | 0.00 | 0.00 | 88 | 1018.9 |
| 20260507123348 | 53 | 261 | 0.0 | 0.0 | 0.00 | 0.00 | 0.00 | 89 | 1019.0 |
| 20260507122826 | 52 | 338 | 0.0 | 0.0 | 0.00 | 0.00 | 0.00 | 89 | 1018.9 |
| 20260507122306 | 52 | 338 | 0.0 | 0.0 | 0.00 | 0.00 | 0.00 | 89 | 1018.9 |
| 20260507121736 | 52 | 338 | 0.0 | 0.0 | 0.00 | 0.00 | 0.00 | 89 | 1018.9 |
| 20260507121236 | 51 | 338 | 0.0 | 0.0 | 0.00 | 0.00 | 0.00 | 89 | 1018.8 |
| 20260507120715 | 51 | 338 | 0.0 | 0.0 | 0.00 | 0.00 | 0.00 | 88 | 1018.8 |
| 20260507120413 | 51 | 338 | 0.0 | 0.0 | 0.00 | 0.00 | 0.00 | 88 | 1018.6 |
| 20260507115654 | 51 | 338 | 0.0 | 0.0 | 0.00 | 0.00 | 0.00 | 88 | 1018.5 |
| 20260507115154 | 51 | 338 | 0.0 | 0.0 | 0.00 | 0.00 | 0.00 | 88 | 1018.4 |
| 20260507114919 | 51 | 338 | 0.0 | 0.0 | 0.00 | 0.00 | 0.00 | 88 | 1018.5 |
| 20260507114153 | 51 | 338 | 0.0 | 0.0 | 0.00 | 0.00 | 0.00 | 88 | 1018.4 |
| 20260507113915 | 51 | 338 | 0.0 | 0.0 | 0.00 | 0.00 | 0.00 | 88 | 1018.3 |
| 20260507113133 | 51 | 338 | 0.0 | 0.0 | 0.00 | 0.00 | 0.00 | 88 | 1018.3 |
| 20260507112610 | 51 | 338 | 0.0 | 0.0 | 0.00 | 0.00 | 0.00 | 88 | 1018.3 |
| 20260507112046 | 51 | 338 | 0.0 | 0.0 | 0.00 | 0.00 | 0.00 | 88 | 1018.3 |
| 20260507111546 | 51 | 338 | 0.0 | 0.0 | 0.00 | 0.00 | 0.00 | 88 | 1018.3 |
| 20260507111034 | 51 | 338 | 0.0 | 0.9 | 0.00 | 0.00 | 0.00 | 88 | 1018.2 |
| 20260507110534 | 51 | 338 | 0.0 | 0.9 | 0.00 | 0.00 | 0.00 | 88 | 1017.8 |
| 20260507110032 | 51 | 338 | 0.0 | 0.9 | 0.00 | 0.00 | 0.00 | 87 | 1017.6 |
| 20260507105529 | 51 | 338 | 0.0 | 0.9 | 0.00 | 0.00 | 0.00 | 87 | 1017.5 |
| 20260507105028 | 51 | 338 | 0.0 | 0.0 | 0.00 | 0.00 | 0.00 | 87 | 1017.3 |
| 20260507104726 | 51 | 338 | 0.0 | 0.0 | 0.00 | 0.00 | 0.00 | 87 | 1017.2 |
| 20260507103937 | 52 | 338 | 0.0 | 0.0 | 0.00 | 0.00 | 0.00 | 87 | 1017.1 |
| 20260507103410 | 52 | 334 | 0.0 | 0.9 | 0.00 | 0.00 | 0.00 | 87 | 1017.1 |
| 20260507102859 | 52 | 334 | 0.0 | 0.9 | 0.00 | 0.00 | 0.00 | 87 | 1017.1 |
| 20260507102338 | 51 | 15 | 0.0 | 0.0 | 0.00 | 0.00 | 0.00 | 87 | 1016.9 |
| 20260507101803 | 51 | 16 | 0.0 | 0.0 | 0.00 | 0.00 | 0.00 | 87 | 1016.9 |
| 20260507101238 | 51 | 16 | 0.0 | 0.0 | 0.00 | 0.00 | 0.00 | 87 | 1016.9 |
| 20260507100735 | 51 | 16 | 0.0 | 0.0 | 0.00 | 0.00 | 0.00 | 86 | 1017.0 |
| 20260507100435 | 51 | 16 | 0.0 | 0.0 | 0.00 | 0.00 | 0.00 | 86 | 1016.9 |
| 20260507095645 | 51 | 15 | 0.0 | 0.0 | 0.00 | 0.00 | 0.00 | 86 | 1016.8 |
| 20260507095118 | 51 | 16 | 0.0 | 0.0 | 0.00 | 0.00 | 0.00 | 85 | 1016.8 |
| 20260507094837 | 52 | 16 | 0.0 | 0.0 | 0.00 | 0.00 | 0.00 | 85 | 1016.7 |
| 20260507094335 | 52 | 16 | 0.0 | 0.0 | 0.00 | 0.00 | 0.00 | 85 | 1016.7 |
| 20260507093604 | 52 | 16 | 0.0 | 0.0 | 0.00 | 0.00 | 0.00 | 84 | 1016.7 |
| 20260507093102 | 53 | 16 | 0.0 | 0.0 | 0.00 | 0.00 | 0.00 | 84 | 1016.6 |
| 20260507092558 | 53 | 16 | 0.0 | 0.0 | 0.00 | 0.00 | 0.00 | 85 | 1016.6 |
| 20260507092054 | 53 | 15 | 0.0 | 0.0 | 0.00 | 0.00 | 0.00 | 84 | 1016.6 |
| 20260507091531 | 53 | 16 | 0.0 | 0.0 | 0.00 | 0.00 | 0.00 | 85 | 1016.6 |
| 20260507090959 | 53 | 16 | 0.0 | 0.0 | 0.00 | 0.00 | 0.00 | 84 | 1016.5 |
| 20260507090452 | 53 | 16 | 0.0 | 0.0 | 0.00 | 0.00 | 0.00 | 84 | 1016.6 |
| 20260507085951 | 53 | 15 | 0.0 | 0.0 | 0.00 | 0.00 | 0.00 | 84 | 1016.5 |
| 20260507085425 | 53 | 16 | 0.0 | 0.9 | 0.00 | 0.00 | 0.00 | 84 | 1016.5 |
| 20260507085120 | 53 | 16 | 0.0 | 0.9 | 0.00 | 0.00 | 0.00 | 84 | 1016.5 |
| 20260507084617 | 53 | 16 | 0.0 | 0.0 | 0.00 | 0.00 | 0.00 | 83 | 1016.3 |
| 20260507083828 | 54 | 15 | 0.0 | 2.6 | 0.00 | 0.00 | 0.00 | 83 | 1016.4 |
| 20260507083321 | 54 | 16 | 0.0 | 2.6 | 0.00 | 0.00 | 0.00 | 84 | 1016.4 |
| 20260507082820 | 54 | 349 | 0.0 | 0.9 | 0.00 | 0.00 | 0.00 | 84 | 1016.5 |
| 20260507082311 | 54 | 349 | 0.0 | 0.9 | 0.00 | 0.00 | 0.00 | 84 | 1016.4 |
| 20260507082301 | 54 | 347 | 0.0 | 0.9 | 0.00 | 0.00 | 0.00 | 84 | 1016.4 |
| 20260507081239 | 54 | 338 | 0.0 | 2.6 | 0.00 | 0.00 | 0.00 | 84 | 1016.2 |
| 20260507080739 | 54 | 6 | 0.0 | 1.7 | 0.00 | 0.00 | 0.00 | 84 | 1016.2 |
| 20260507080235 | 54 | 101 | 0.0 | 3.5 | 0.00 | 0.00 | 0.00 | 84 | 1016.1 |
| 20260507075732 | 54 | 143 | 0.9 | 3.5 | 0.00 | 0.00 | 0.00 | 84 | 1016.0 |
| 20260507075434 | 54 | 70 | 0.9 | 5.2 | 0.00 | 0.00 | 0.00 | 84 | 1016.0 |
| 20260507074638 | 55 | 17 | 0.9 | 5.2 | 0.00 | 0.00 | 0.00 | 84 | 1016.0 |
| 20260507074141 | 55 | 13 | 0.9 | 4.3 | 0.00 | 0.00 | 0.00 | 84 | 1015.9 |
| 20260507073825 | 55 | 340 | 0.9 | 3.5 | 0.00 | 0.00 | 0.00 | 83 | 1015.9 |
| 20260507073326 | 55 | 15 | 0.9 | 3.5 | 0.00 | 0.00 | 0.00 | 83 | 1015.9 |
| 20260507072536 | 55 | 348 | 1.7 | 5.2 | 0.00 | 0.00 | 0.00 | 83 | 1015.8 |
| 20260507072007 | 55 | 349 | 1.7 | 5.2 | 0.00 | 0.00 | 0.00 | 83 | 1016.0 |
| 20260507071734 | 55 | 9 | 0.9 | 4.3 | 0.00 | 0.00 | 0.00 | 83 | 1015.9 |
| 20260507071000 | 55 | 325 | 0.0 | 3.5 | 0.00 | 0.00 | 0.00 | 83 | 1016.0 |
| 20260507070457 | 55 | 6 | 0.0 | 2.6 | 0.00 | 0.00 | 0.00 | 83 | 1016.0 |
| 20260507065949 | 55 | 330 | 0.0 | 2.6 | 0.00 | 0.00 | 0.00 | 83 | 1016.1 |
| 20260507065713 | 55 | 31 | 0.0 | 3.5 | 0.00 | 0.00 | 0.00 | 83 | 1016.0 |
| 20260507064945 | 55 | 19 | 0.0 | 2.6 | 0.00 | 0.00 | 0.00 | 82 | 1016.0 |
| 20260507064439 | 55 | 355 | 0.0 | 1.7 | 0.00 | 0.00 | 0.00 | 82 | 1015.9 |
| 20260507063937 | 55 | 19 | 0.0 | 1.7 | 0.00 | 0.00 | 0.00 | 82 | 1015.8 |
| 20260507063408 | 55 | 356 | 0.0 | 1.7 | 0.00 | 0.00 | 0.00 | 81 | 1015.9 |
| 20260507062904 | 55 | 359 | 0.9 | 1.7 | 0.00 | 0.00 | 0.00 | 81 | 1015.8 |
| 20260507062339 | 56 | 6 | 0.9 | 2.6 | 0.00 | 0.00 | 0.00 | 81 | 1015.8 |
| 20260507061815 | 56 | 27 | 0.0 | 2.6 | 0.00 | 0.00 | 0.00 | 80 | 1015.7 |
| 20260507061246 | 56 | 83 | 0.0 | 3.5 | 0.00 | 0.00 | 0.00 | 80 | 1015.8 |
| 20260507060743 | 56 | 68 | 0.0 | 3.5 | 0.00 | 0.00 | 0.00 | 80 | 1015.7 |
| 20260507060510 | 56 | 9 | 0.0 | 4.3 | 0.00 | 0.00 | 0.00 | 79 | 1015.6 |
| 20260507055936 | 56 | 338 | 0.0 | 4.3 | 0.00 | 0.00 | 0.00 | 79 | 1015.7 |
| 20260507055210 | 56 | 82 | 0.0 | 3.5 | 0.00 | 0.00 | 0.00 | 79 | 1015.7 |
| 20260507054708 | 56 | 41 | 0.0 | 4.3 | 0.00 | 0.00 | 0.00 | 78 | 1015.7 |
| 20260507054206 | 56 | 59 | 0.0 | 4.3 | 0.00 | 0.00 | 0.00 | 78 | 1015.7 |
| 20260507053638 | 57 | 359 | 0.9 | 5.2 | 0.00 | 0.00 | 0.00 | 77 | 1015.7 |
| 20260507053111 | 57 | 63 | 0.9 | 5.2 | 0.00 | 0.00 | 0.00 | 77 | 1015.7 |
| 20260507052607 | 57 | 340 | 0.9 | 3.5 | 0.00 | 0.00 | 0.00 | 77 | 1015.8 |
| 20260507052103 | 57 | 89 | 0.9 | 3.5 | 0.00 | 0.00 | 0.00 | 77 | 1015.9 |
| 20260507051554 | 57 | 82 | 0.9 | 3.5 | 0.00 | 0.00 | 0.00 | 77 | 1015.9 |
| 20260507051053 | 57 | 46 | 0.9 | 2.6 | 0.00 | 0.00 | 0.00 | 77 | 1015.9 |
| 20260507050524 | 57 | 304 | 0.9 | 6.1 | 0.00 | 0.00 | 0.00 | 77 | 1015.9 |
| 20260507050022 | 58 | 14 | 0.9 | 6.1 | 0.00 | 0.00 | 0.00 | 77 | 1015.8 |
| 20260507045502 | 58 | 339 | 0.9 | 5.2 | 0.00 | 0.00 | 0.00 | 78 | 1015.8 |
| 20260507045002 | 58 | 60 | 0.9 | 6.1 | 0.00 | 0.00 | 0.00 | 77 | 1015.8 |
| 20260507044443 | 58 | 60 | 0.9 | 6.1 | 0.00 | 0.00 | 0.00 | 77 | 1015.8 |
| 20260507043941 | 58 | 336 | 0.9 | 6.1 | 0.00 | 0.00 | 0.00 | 77 | 1016.0 |
| 20260507043417 | 58 | 316 | 0.9 | 3.5 | 0.00 | 0.00 | 0.00 | 77 | 1015.9 |
| 20260507042850 | 58 | 264 | 0.9 | 2.6 | 0.00 | 0.00 | 0.00 | 77 | 1016.0 |
| 20260507042345 | 58 | 333 | 0.0 | 2.6 | 0.00 | 0.00 | 0.00 | 76 | 1016.2 |
| 20260507041843 | 58 | 16 | 0.0 | 2.6 | 0.00 | 0.00 | 0.00 | 76 | 1016.2 |
| 20260507041342 | 59 | 6 | 0.0 | 2.6 | 0.00 | 0.00 | 0.00 | 76 | 1016.3 |
| 20260507040814 | 59 | 351 | 0.9 | 4.3 | 0.00 | 0.00 | 0.00 | 76 | 1016.4 |
| 20260507040256 | 59 | 29 | 0.9 | 4.3 | 0.00 | 0.00 | 0.00 | 75 | 1016.3 |
| 20260507035734 | 59 | 329 | 1.7 | 5.2 | 0.00 | 0.00 | 0.00 | 75 | 1016.3 |
| 20260507035215 | 59 | 43 | 1.7 | 7.0 | 0.00 | 0.00 | 0.00 | 75 | 1016.3 |
| 20260507034718 | 59 | 6 | 1.7 | 7.0 | 0.00 | 0.00 | 0.00 | 75 | 1016.2 |
| 20260507034200 | 59 | 41 | 2.6 | 7.8 | 0.00 | 0.00 | 0.00 | 75 | 1016.3 |
| 20260507033643 | 59 | 36 | 2.6 | 7.8 | 0.00 | 0.00 | 0.00 | 75 | 1016.3 |
| 20260507033126 | 59 | 358 | 2.6 | 7.0 | 0.00 | 0.00 | 0.00 | 75 | 1016.1 |
| 20260507032628 | 59 | 359 | 2.6 | 6.1 | 0.00 | 0.00 | 0.00 | 75 | 1016.0 |
| 20260507032110 | 59 | 44 | 2.6 | 7.0 | 0.00 | 0.00 | 0.00 | 75 | 1015.9 |
| 20260507031553 | 59 | 12 | 1.7 | 6.1 | 0.00 | 0.00 | 0.00 | 75 | 1015.9 |
| 20260507031239 | 59 | 5 | 1.7 | 4.3 | 0.00 | 0.00 | 0.00 | 75 | 1015.9 |
| 20260507030505 | 59 | 0 | 1.7 | 5.2 | 0.00 | 0.00 | 0.00 | 75 | 1015.8 |
| 20260507030158 | 59 | 8 | 2.6 | 7.8 | 0.00 | 0.00 | 0.00 | 75 | 1015.6 |
| 20260507025433 | 59 | 324 | 2.6 | 7.8 | 0.00 | 0.00 | 0.00 | 75 | 1015.5 |
| 20260507025213 | 59 | 61 | 1.7 | 6.1 | 0.00 | 0.00 | 0.00 | 76 | 1015.4 |
| 20260507025118 | 59 | 10 | 1.7 | 5.2 | 0.00 | 0.00 | 0.00 | 76 | 1015.4 |
| 20260507023910 | 59 | 335 | 0.9 | 5.2 | 0.00 | 0.00 | 0.00 | 77 | 1015.3 |
| 20260507023344 | 59 | 345 | 0.9 | 4.3 | 0.00 | 0.00 | 0.00 | 77 | 1015.2 |
| 20260507022820 | 59 | 103 | 0.9 | 4.3 | 0.00 | 0.00 | 0.00 | 77 | 1015.2 |
| 20260507022255 | 59 | 80 | 0.9 | 4.3 | 0.00 | 0.00 | 0.00 | 77 | 1014.9 |
| 20260507021734 | 59 | 70 | 1.7 | 6.1 | 0.00 | 0.00 | 0.00 | 77 | 1014.9 |
| 20260507021450 | 59 | 68 | 1.7 | 6.1 | 0.00 | 0.00 | 0.00 | 77 | 1014.8 |
| 20260507020729 | 59 | 27 | 1.7 | 7.8 | 0.00 | 0.00 | 0.00 | 78 | 1014.8 |
| 20260507020203 | 59 | 68 | 2.6 | 7.8 | 0.00 | 0.00 | 0.00 | 78 | 1014.7 |
| 20260507015858 | 59 | 26 | 2.6 | 11.3 | 0.00 | 0.00 | 0.00 | 78 | 1014.6 |
| 20260507015111 | 59 | 323 | 1.7 | 7.0 | 0.00 | 0.00 | 0.00 | 78 | 1014.5 |
| 20260507014607 | 59 | 76 | 2.6 | 9.6 | 0.00 | 0.00 | 0.00 | 77 | 1014.4 |
| 20260507014103 | 59 | 335 | 3.5 | 9.6 | 0.00 | 0.00 | 0.00 | 77 | 1014.2 |
| 20260507013822 | 59 | 34 | 3.5 | 8.7 | 0.00 | 0.00 | 0.00 | 77 | 1014.1 |
| 20260507013052 | 59 | 24 | 2.6 | 8.7 | 0.00 | 0.00 | 0.00 | 77 | 1014.0 |
| 20260507012548 | 59 | 323 | 2.6 | 8.7 | 0.00 | 0.00 | 0.00 | 78 | 1014.0 |
| 20260507012050 | 59 | 15 | 1.7 | 8.7 | 0.00 | 0.00 | 0.00 | 78 | 1013.8 |
| 20260507011523 | 59 | 19 | 2.6 | 7.0 | 0.00 | 0.00 | 0.00 | 78 | 1013.7 |
| 20260507011239 | 59 | 1 | 1.7 | 7.0 | 0.00 | 0.00 | 0.00 | 78 | 1013.6 |
| 20260507010516 | 59 | 1 | 1.7 | 7.0 | 0.00 | 0.00 | 0.00 | 78 | 1013.5 |
| 20260507010208 | 59 | 25 | 2.6 | 7.8 | 0.00 | 0.00 | 0.00 | 78 | 1013.6 |
| 20260507005706 | 59 | 337 | 2.6 | 7.8 | 0.00 | 0.00 | 0.00 | 79 | 1013.6 |
| 20260507004941 | 59 | 354 | 1.7 | 6.1 | 0.00 | 0.00 | 0.00 | 79 | 1013.6 |
| 20260507004703 | 59 | 6 | 0.9 | 3.5 | 0.00 | 0.00 | 0.00 | 80 | 1013.6 |
| 20260507003914 | 59 | 286 | 0.0 | 2.6 | 0.00 | 0.00 | 0.00 | 80 | 1013.4 |
| 20260507003345 | 59 | 295 | 0.9 | 3.5 | 0.00 | 0.00 | 0.00 | 80 | 1013.4 |
| 20260507002844 | 59 | 38 | 0.9 | 3.5 | 0.00 | 0.00 | 0.00 | 80 | 1013.3 |
| 20260507002317 | 59 | 338 | 0.9 | 3.5 | 0.00 | 0.00 | 0.00 | 79 | 1013.3 |
| 20260507001813 | 59 | 67 | 0.9 | 3.5 | 0.00 | 0.00 | 0.00 | 79 | 1013.3 |
| 20260507001309 | 59 | 63 | 1.7 | 7.0 | 0.00 | 0.00 | 0.00 | 79 | 1013.2 |
| 20260507000807 | 59 | 11 | 2.6 | 7.8 | 0.00 | 0.00 | 0.00 | 78 | 1013.0 |
| 20260507000306 | 59 | 296 | 2.6 | 7.8 | 0.00 | 0.00 | 0.00 | 78 | 1013.0 |
| 20260506235741 | 59 | 342 | 2.6 | 7.8 | 0.00 | 0.00 | 0.00 | 78 | 1012.9 |
| 20260506235215 | 59 | 322 | 1.7 | 5.2 | 0.00 | 0.00 | 0.00 | 78 | 1013.1 |
| 20260506234650 | 59 | 79 | 0.9 | 6.1 | 0.00 | 0.00 | 0.00 | 78 | 1013.1 |
| 20260506234416 | 59 | 1 | 0.9 | 6.1 | 0.00 | 0.00 | 0.00 | 77 | 1013.1 |
| 20260506233647 | 59 | 359 | 2.6 | 9.6 | 0.00 | 0.00 | 0.00 | 77 | 1013.1 |
| 20260506233150 | 59 | 352 | 2.6 | 9.6 | 0.00 | 0.00 | 0.00 | 76 | 1013.0 |
| 20260506232646 | 59 | 39 | 1.7 | 7.8 | 0.00 | 0.00 | 0.00 | 77 | 1012.9 |
| 20260506232149 | 59 | 357 | 2.6 | 7.0 | 0.00 | 0.00 | 0.00 | 77 | 1012.8 |
| 20260506231619 | 59 | 302 | 2.6 | 7.8 | 0.00 | 0.00 | 0.00 | 76 | 1012.7 |
| 20260506231118 | 59 | 344 | 2.6 | 6.1 | 0.00 | 0.00 | 0.00 | 77 | 1012.7 |
| 20260506230614 | 59 | 24 | 2.6 | 7.0 | 0.00 | 0.00 | 0.00 | 77 | 1012.8 |
| 20260506230337 | 59 | 341 | 2.6 | 5.2 | 0.00 | 0.00 | 0.00 | 78 | 1012.4 |
| 20260506225607 | 59 | 79 | 2.6 | 7.0 | 0.00 | 0.00 | 0.00 | 78 | 1012.4 |
| 20260506225107 | 59 | 335 | 1.7 | 5.2 | 0.00 | 0.00 | 0.00 | 78 | 1012.5 |
| 20260506224537 | 59 | 4 | 1.7 | 5.2 | 0.00 | 0.00 | 0.00 | 78 | 1012.7 |
| 20260506224036 | 59 | 36 | 2.6 | 7.0 | 0.00 | 0.00 | 0.00 | 78 | 1012.8 |
| 20260506223512 | 58 | 327 | 3.5 | 7.8 | 0.00 | 0.00 | 0.00 | 78 | 1012.7 |
| 20260506222941 | 58 | 8 | 3.5 | 7.8 | 0.00 | 0.00 | 0.00 | 78 | 1012.7 |
| 20260506222439 | 58 | 58 | 3.5 | 8.7 | 0.00 | 0.00 | 0.00 | 78 | 1012.7 |
| 20260506221915 | 58 | 30 | 3.5 | 8.7 | 0.00 | 0.00 | 0.00 | 78 | 1012.6 |
| 20260506221352 | 58 | 307 | 3.5 | 8.7 | 0.00 | 0.00 | 0.00 | 79 | 1012.4 |
| 20260506221112 | 58 | 27 | 3.5 | 9.6 | 0.00 | 0.00 | 0.00 | 79 | 1012.0 |
| 20260506220349 | 58 | 13 | 3.5 | 9.6 | 0.00 | 0.00 | 0.00 | 79 | 1012.0 |
| 20260506215849 | 58 | 314 | 2.6 | 7.0 | 0.00 | 0.00 | 0.00 | 79 | 1012.2 |
| 20260506215351 | 59 | 46 | 1.7 | 6.1 | 0.00 | 0.00 | 0.00 | 79 | 1012.2 |
| 20260506214826 | 59 | 36 | 1.7 | 6.1 | 0.00 | 0.00 | 0.00 | 77 | 1012.3 |
| 20260506214257 | 59 | 328 | 1.7 | 7.0 | 0.00 | 0.00 | 0.00 | 77 | 1012.1 |
| 20260506214023 | 60 | 22 | 2.6 | 7.0 | 0.00 | 0.00 | 0.00 | 75 | 1012.5 |
| 20260506213517 | 60 | 300 | 2.6 | 7.8 | 0.00 | 0.00 | 0.00 | 73 | 1012.3 |
| 20260506212751 | 60 | 4 | 1.7 | 7.8 | 0.00 | 0.00 | 0.00 | 73 | 1012.2 |
| 20260506212222 | 60 | 351 | 1.7 | 5.2 | 0.00 | 0.00 | 0.00 | 73 | 1012.2 |
| 20260506211718 | 60 | 7 | 1.7 | 5.2 | 0.00 | 0.00 | 0.00 | 73 | 1012.3 |
| 20260506211151 | 60 | 38 | 1.7 | 5.2 | 0.00 | 0.00 | 0.00 | 74 | 1012.4 |
| 20260506210645 | 60 | 55 | 2.6 | 5.2 | 0.00 | 0.00 | 0.00 | 74 | 1012.2 |
| 20260506210406 | 60 | 316 | 2.6 | 7.8 | 0.00 | 0.00 | 0.00 | 73 | 1012.5 |
| 20260506205635 | 60 | 330 | 2.6 | 7.8 | 0.00 | 0.00 | 0.00 | 73 | 1012.5 |
| 20260506205133 | 60 | 341 | 2.6 | 7.8 | 0.00 | 0.00 | 0.00 | 74 | 1012.4 |
| 20260506204832 | 60 | 11 | 3.5 | 7.8 | 0.00 | 0.00 | 0.00 | 74 | 1012.6 |
| 20260506204039 | 60 | 353 | 3.5 | 7.0 | 0.00 | 0.00 | 0.00 | 73 | 1012.6 |
| 20260506203538 | 60 | 65 | 2.6 | 7.0 | 0.00 | 0.00 | 0.00 | 73 | 1012.7 |
| 20260506203013 | 60 | 23 | 1.7 | 7.0 | 0.00 | 0.00 | 0.00 | 75 | 1012.6 |
| 20260506202702 | 60 | 23 | 2.6 | 7.8 | 0.00 | 0.00 | 0.00 | 76 | 1012.7 |
| 20260506201942 | 59 | 29 | 2.6 | 7.8 | 0.00 | 0.00 | 0.00 | 76 | 1012.9 |
| 20260506201639 | 59 | 35 | 1.7 | 6.1 | 0.00 | 0.00 | 0.00 | 76 | 1013.1 |
| 20260506201111 | 59 | 309 | 1.7 | 5.2 | 0.00 | 0.00 | 0.00 | 75 | 1013.1 |
| 20260506200344 | 59 | 13 | 1.7 | 6.1 | 0.00 | 0.00 | 0.00 | 75 | 1013.4 |